EHI
0 0 0 0 0 0 0 0 0 0 0 0 0 1 3 6 8 9 11 10 9 9 10 12 12 10 14 23 30 29 26 30 33 30 24 20 15 13 12 11 10 9 7 6
0 0 0 0 0 0 0 0 0 0 0 0 0 0 2 5 8 9 10 10 8 8 12 16 14 12 16 25 32 32 31 33 36 34 28 23 19 14 12 11 10 9 8 8
0 0 0 0 0 0 0 0 0 0 0 0 0 0 1 4 7 8 9 10 8 7 11 15 16 15 19 27 33 35 36 39 42 40 31 26 23 17 13 14 12 10 10 10
0 0 0 0 0 0 0 0 0 0 0 0 0 0 1 3 6 8 9 10 8 6 8 11 14 16 20 25 30 35 39 43 46 43 35 30 26 20 16 16 14 12 12 13
0 0 0 0 0 0 0 0 0 0 0 0 0 0 1 3 5 7 9 10 9 9 9 10 12 16 19 21 27 36 42 46 47 44 40 37 31 24 20 19 17 15 15 16
0 0 0 0 0 0 0 0 0 0 0 0 0 0 1 2 3 5 8 10 12 14 16 16 17 20 22 24 31 39 46 48 48 46 44 42 37 30 25 22 21 19 16 16
0 0 0 0 0 0 0 0 0 0 0 0 0 0 1 1 1 3 8 11 14 19 23 26 29 30 32 34 38 43 49 51 51 49 47 44 39 32 26 23 22 19 16 16
0 0 0 0 0 0 0 0 0 0 0 0 0 0 0 0 2 6 9 11 14 22 29 33 34 36 38 39 41 45 50 52 50 47 45 41 35 26 21 20 20 18 17 16
0 0 0 0 0 0 0 0 0 0 0 0 0 0 0 1 4 8 11 12 15 22 30 32 33 34 35 37 39 44 49 49 46 43 40 35 30 24 20 20 21 21 19 16
0 0 0 0 0 0 0 0 0 0 0 0 0 0 0 2 6 10 13 15 18 23 28 32 33 31 29 31 35 40 44 43 40 38 37 32 28 26 25 24 23 22 19 16
0 0 0 0 0 0 0 0 0 0 0 0 0 0 1 3 7 10 14 18 21 25 31 34 33 30 27 28 32 36 38 36 34 33 33 30 28 28 27 25 22 18 15 14
0 0 0 0 0 0 0 0 0 0 0 0 0 1 3 5 8 12 18 24 28 30 33 34 33 32 30 29 30 33 33 30 28 29 29 28 28 29 26 23 19 16 13 11
0 0 0 0 0 0 0 0 0 0 0 0 0 1 2 6 10 16 25 32 35 36 37 36 36 35 32 28 27 29 30 27 27 29 29 29 30 28 25 21 19 16 14 11
0 0 0 0 0 0 0 0 0 0 0 0 0 0 1 5 12 20 30 37 39 42 43 41 40 38 33 28 27 29 29 30 31 33 34 33 31 27 23 20 18 16 14 12
0 0 0 0 0 0 0 0 0 0 0 0 0 0 2 8 15 23 31 37 41 44 44 43 42 41 36 32 31 32 33 36 37 37 36 33 29 25 21 18 16 16 16 15
0 0 0 0 0 0 0 0 0 0 0 0 0 1 6 14 19 24 30 36 39 41 42 44 45 45 41 36 35 36 39 40 40 37 34 30 27 23 19 16 17 18 18 18
0 0 0 0 0 0 0 0 0 0 0 1 1 3 9 16 21 24 27 32 34 36 39 44 48 49 45 41 40 40 41 41 38 32 28 25 24 22 18 17 18 19 18 18
0 0 0 0 0 0 0 0 0 0 1 2 2 5 11 17 21 22 22 25 30 34 38 44 49 50 48 45 43 42 41 40 34 27 24 23 23 22 20 19 19 18 17 16
0 0 0 0 0 0 0 0 0 0 1 2 4 8 13 18 20 19 19 22 28 34 40 44 48 48 48 47 45 44 42 39 33 28 25 23 21 20 19 19 19 17 15 15
0 0 0 0 0 0 0 1 1 0 2 4 8 13 17 17 17 19 23 26 31 39 44 46 47 47 48 48 48 46 43 40 35 30 27 24 20 19 18 18 17 15 13 11
0 0 0 0 0 0 1 2 3 5 9 12 15 19 20 20 21 26 29 32 38 46 49 49 47 47 46 47 47 45 41 38 35 31 27 23 20 19 18 17 15 12 9 7
0 0 0 0 1 1 4 7 10 15 19 20 23 27 29 28 29 32 35 38 43 49 51 49 47 44 41 39 40 39 37 35 33 30 26 21 19 18 16 15 13 9 6 5
1 1 1 2 3 4 7 12 17 21 22 23 26 33 36 33 31 33 38 43 46 48 50 49 46 41 37 33 33 34 34 33 32 28 24 20 16 14 14 14 11 8 5 4
4 5 6 6 7 7 10 16 22 23 22 21 24 30 34 31 29 32 38 44 47 48 50 49 45 40 37 34 32 32 32 32 31 27 22 18 14 13 13 12 9 6 5 5
6 9 10 11 11 11 14 19 25 27 24 23 23 25 27 26 26 31 38 43 44 45 48 48 44 40 38 37 34 32 31 30 28 25 20 15 13 12 12 9 6 4 4 4
6 9 13 13 13 14 17 23 29 30 28 25 24 25 25 24 26 31 39 42 42 42 45 46 43 38 36 36 35 33 32 30 28 24 19 14 12 12 10 7 4 2 2 2
Wind_Speed
7 10 11 9 7 3 4 5 4 3 3 5 5 4 6 9 10 11 11 11 11 11 10 10 10 9 9 8 8 8 8 7 6 4 4 4 4 3 3 3 3 4 5 4
9 12 8 6 6 6 7 7 5 4 2 4 4 5 5 8 11 11 11 11 11 11 10 10 10 9 10 9 9 9 9 8 7 5 4 3 3 3 3 2 2 4 4 4
14 7 7 9 10 10 9 8 5 3 4 5 6 7 6 7 8 9 10 11 11 11 12 12 11 10 10 10 10 8 8 7 7 6 4 3 3 3 3 3 2 3 4 4
11 6 9 12 13 11 10 6 5 5 7 5 5 5 6 7 8 10 11 12 12 12 11 11 11 11 10 10 9 9 8 7 7 7 6 6 4 4 3 2 2 3 4 4
10 10 12 13 11 10 5 4 6 7 7 6 6 8 3 5 6 7 10 11 12 11 11 11 10 10 9 9 9 8 8 7 7 7 6 6 5 4 3 2 2 3 3 4
6 7 9 9 7 7 7 7 5 7 8 9 5 7 3 3 2 3 6 8 10 10 10 9 9 8 8 8 8 8 7 7 7 7 6 6 5 4 3 3 2 3 2 2
10 10 8 8 10 10 11 10 8 9 9 7 4 7 2 2 1 1 3 5 8 9 9 9 9 9 9 9 8 8 8 7 7 6 6 5 5 4 4 4 2 3 2 2
14 14 13 11 12 11 14 14 10 8 8 6 6 7 1 1 0 1 2 4 6 8 9 9 9 9 9 9 9 8 8 7 6 6 5 4 4 3 3 2 3 2 2 2
12 12 11 9 7 9 13 13 11 9 8 7 6 5 4 4 4 4 5 6 6 8 9 9 9 9 9 9 8 8 7 6 6 5 5 4 3 3 2 1 2 1 2 2
7 10 12 10 9 6 8 10 8 10 8 9 8 8 5 5 5 5 6 6 7 8 9 9 9 9 8 8 8 7 7 6 6 5 4 3 3 2 1 1 0 1 2 2
10 10 11 13 14 14 10 12 10 9 9 9 7 4 2 3 3 4 6 7 7 8 9 9 9 9 8 8 8 8 7 7 5 5 4 3 3 2 2 1 1 1 1 2
11 9 10 13 7 7 13 13 13 10 8 9 8 3 6 2 3 4 5 7 7 8 8 9 10 9 9 9 8 8 7 6 6 5 5 4 4 3 3 2 1 1 1 1
10 9 11 12 12 10 12 12 14 13 9 9 10 5 7 4 3 5 6 8 8 8 8 9 9 8 8 8 7 7 7 6 6 6 6 5 4 4 3 3 2 2 2 2
9 11 13 13 11 14 14 13 14 14 10 10 11 6 6 5 5 5 7 8 8 8 8 8 8 8 7 7 7 7 7 7 6 6 6 5 4 4 3 3 3 3 3 3
9 12 13 11 7 11 14 15 16 16 14 12 9 9 6 4 4 5 6 8 8 8 8 8 8 8 8 8 7 7 7 7 6 6 6 5 5 4 4 4 4 4 3 4
8 10 11 12 11 11 13 14 15 15 14 13 11 8 3 3 4 5 7 7 8 8 9 8 8 8 8 8 8 8 8 7 7 6 6 6 5 5 5 5 4 4 4 5
9 9 11 12 12 12 16 15 15 14 12 12 12 7 6 6 6 6 7 7 7 8 8 9 8 8 8 8 8 8 8 8 7 7 6 6 6 5 5 5 5 5 5 5
9 10 9 10 11 16 9 7 11 12 11 11 8 6 6 5 5 4 6 7 7 8 8 9 8 8 8 8 8 8 8 8 8 7 6 6 5 6 5 5 5 5 5 5
9 10 9 10 14 12 7 7 10 12 10 9 9 8 7 6 5 5 5 6 6 7 7 8 8 8 8 8 8 8 8 8 8 7 6 6 6 6 6 6 6 5 5 6
9 10 10 10 13 13 8 7 6 9 10 7 8 8 8 9 8 6 6 6 7 7 7 7 8 8 8 8 8 8 8 7 7 7 6 6 6 6 6 6 6 5 5 6
13 11 13 13 12 7 3 5 9 11 5 4 7 8 9 8 3 5 6 6 6 7 8 8 8 8 7 7 8 8 7 6 6 6 7 6 6 7 7 6 6 6 5 6
11 11 12 11 13 8 4 6 7 0 1 3 5 6 6 5 4 6 7 7 7 8 8 9 8 7 7 7 7 7 7 6 6 7 7 7 7 6 7 7 6 6 6 6
6 4 4 5 2 4 2 1 1 1 1 1 3 4 5 6 6 7 7 7 8 8 8 8 8 8 7 7 7 7 7 7 7 7 7 7 7 6 7 7 7 6 5 4
4 2 3 3 3 2 1 0 1 1 1 1 2 4 5 6 7 7 7 7 7 7 7 7 8 8 7 7 6 6 7 7 8 8 7 7 7 7 6 4 4 4 4 4
2 4 4 5 3 3 2 0 1 1 1 2 3 3 5 6 7 7 7 7 7 7 6 7 7 7 7 7 6 7 8 8 8 8 7 7 6 6 6 5 4 2 3 2
4 4 5 3 2 2 1 1 1 1 2 3 3 4 4 5 6 6 6 6 7 7 7 7 7 7 7 7 7 6 7 7 8 7 6 5 5 5 5 6 5 10 8 8
Wind_Direction
195 216 210 199 218 229 208 218 182 138 146 220 222 211 171 179 196 196 191 191 194 199 193 189 192 197 196 199 199 201 207 201 205 213 218 221 230 246 253 253 256 261 266 261
200 217 207 196 197 218 215 213 191 154 153 241 241 229 190 189 203 206 199 198 199 195 191 189 195 198 201 199 201 204 208 205 207 210 223 229 243 246 243 265 274 271 268 266
219 186 174 192 195 208 216 225 211 188 187 215 251 221 191 189 205 208 210 207 204 199 195 192 196 201 200 201 202 203 205 206 208 209 209 209 213 237 236 241 253 266 270 268
219 172 189 203 204 214 211 213 224 207 222 203 241 254 173 184 195 203 206 206 204 200 200 197 196 199 199 197 196 198 198 202 202 203 214 219 230 239 244 250 260 259 258 266
194 187 196 209 205 217 210 176 210 220 236 242 217 265 146 166 205 204 203 204 204 200 199 199 199 196 195 191 189 187 190 195 197 204 208 220 233 240 244 242 252 263 260 265
185 186 212 211 195 197 159 165 182 221 235 236 228 258 239 148 220 199 186 195 202 199 196 196 193 186 184 183 182 181 180 188 192 198 208 219 229 237 253 254 263 259 260 267
189 189 192 198 180 180 198 202 205 212 221 224 184 245 261 59 334 264 189 182 190 190 189 185 182 175 173 174 175 177 177 181 185 194 205 212 221 230 241 257 259 275 286 288
193 192 189 197 206 195 210 222 229 232 229 200 183 240 218 95 73 188 178 169 173 176 175 175 172 169 166 167 170 175 176 178 180 183 190 206 213 227 238 248 279 287 298 309
204 197 176 193 210 220 204 224 242 246 250 247 203 219 207 180 169 155 149 151 160 165 166 164 163 161 160 163 166 169 168 168 169 173 175 188 202 224 252 257 257 286 305 321
220 203 181 180 191 214 241 214 217 238 234 236 220 223 212 178 175 159 146 139 146 153 156 156 155 153 152 152 152 154 154 155 159 166 173 162 174 185 205 245 18 9 5 0
221 211 185 189 204 196 195 208 218 231 242 245 232 200 119 176 172 169 146 137 143 146 146 144 141 140 143 145 147 148 146 147 150 151 148 146 145 145 146 129 87 55 27 16
212 223 204 198 190 232 214 211 207 218 220 241 259 163 109 137 164 161 145 138 136 136 137 138 137 141 146 146 145 147 145 146 151 148 143 139 133 129 122 105 75 60 48 34
191 217 205 192 191 199 214 212 219 228 222 229 240 189 124 148 157 149 145 141 140 143 140 139 139 143 145 146 145 145 145 144 146 142 138 135 132 125 113 99 81 65 56 43
209 221 227 217 203 191 201 205 216 222 224 225 236 232 163 174 166 153 151 149 147 145 146 145 143 142 141 144 144 144 141 140 139 137 135 131 124 117 112 103 94 82 74 65
218 219 226 241 227 208 209 208 210 223 234 239 229 237 221 192 176 160 158 156 152 152 154 151 147 143 145 145 143 142 137 134 134 136 132 128 123 121 116 108 101 93 86 81
219 225 217 224 222 221 222 217 215 223 231 237 240 235 213 169 169 169 168 167 165 162 160 155 150 147 150 150 148 143 138 135 136 134 129 127 127 124 119 116 111 105 93 84
201 214 216 216 209 216 222 218 216 217 223 231 232 224 184 187 186 180 174 176 173 167 163 160 157 153 153 152 148 146 142 139 138 136 135 136 137 131 128 126 117 108 101 94
209 217 220 217 201 224 221 214 223 223 224 228 236 219 201 197 180 179 186 179 173 170 166 162 158 153 152 147 146 143 143 142 142 140 138 137 140 132 126 121 113 104 97 95
211 214 222 219 215 218 203 201 213 218 224 225 224 211 196 174 174 181 184 179 175 169 162 158 155 149 146 145 144 143 145 146 147 145 144 143 142 136 134 127 118 112 107 102
193 214 225 222 228 222 197 177 204 222 222 210 213 203 190 192 209 178 157 164 160 153 151 148 145 141 141 144 145 147 149 150 147 145 144 140 140 139 135 128 124 119 114 109
186 200 219 221 225 221 141 172 195 217 206 185 201 198 199 209 236 133 149 149 145 143 143 143 141 138 138 143 148 149 149 147 143 141 139 138 137 134 128 123 122 124 121 113
202 200 209 220 225 206 134 186 207 275 41 192 197 193 193 177 152 151 148 145 147 147 147 144 138 134 137 145 150 148 146 139 137 138 138 136 133 130 127 126 126 126 124 121
229 254 234 235 228 78 125 156 36 330 264 220 198 185 173 165 159 153 148 145 148 149 144 144 141 137 139 147 151 148 144 143 142 141 138 134 130 125 130 135 135 138 141 138
179 252 229 215 181 157 143 193 321 304 261 206 179 175 169 160 153 145 142 143 145 144 143 145 144 141 141 146 147 141 141 146 144 141 138 136 135 132 129 135 138 141 145 145
204 218 211 212 188 182 173 51 19 38 115 139 146 163 164 156 152 147 146 146 148 145 143 144 142 141 141 140 138 140 144 147 144 143 143 144 142 136 131 120 85 105 91 70
227 241 241 225 173 234 122 62 67 119 113 119 138 139 141 149 149 148 148 148 150 149 144 139 138 138 139 138 136 141 147 149 148 149 153 152 144 139 139 130 103 51 56 62